| time (UTC) | temp F | wind direction | speed MPH | gust MPH | rain 1hr in | rain 24hr in | rain mn in | humidity % | barometer mb |
| 20260509204547 | 51 | 201 | 7.0 | 14.0 | 0.00 | 0.27 | 0.27 | 92 | 950.9 |
| 20260509203046 | 50 | 212 | 7.0 | 11.0 | 0.00 | 0.27 | 0.27 | 92 | 951.1 |
| 20260509201554 | 50 | 204 | 7.0 | 11.0 | 0.00 | 0.27 | 0.27 | 92 | 951.2 |
| 20260509200045 | 50 | 207 | 6.0 | 10.0 | 0.00 | 0.27 | 0.27 | 92 | 951.3 |
| 20260509194540 | 50 | 207 | 7.0 | 12.0 | 0.00 | 0.27 | 0.27 | 92 | 951.6 |
| 20260509193044 | 50 | 191 | 6.0 | 12.0 | 0.00 | 0.27 | 0.27 | 92 | 951.7 |
| 20260509191539 | 50 | 222 | 8.0 | 12.0 | 0.00 | 0.27 | 0.27 | 92 | 951.8 |
| 20260509190035 | 49 | 203 | 4.0 | 9.0 | 0.00 | 0.27 | 0.27 | 92 | 951.9 |
| 20260509184540 | 49 | 201 | 5.0 | 10.0 | 0.00 | 0.27 | 0.27 | 93 | 951.8 |
| 20260509183035 | 49 | 190 | 5.0 | 10.0 | 0.00 | 0.27 | 0.27 | 93 | 951.8 |
| 20260509181529 | 49 | 193 | 6.0 | 13.0 | 0.00 | 0.27 | 0.27 | 93 | 951.8 |
| 20260509180028 | 49 | 177 | 6.0 | 9.0 | 0.00 | 0.27 | 0.27 | 93 | 951.8 |
| 20260509174527 | 49 | 179 | 6.0 | 11.0 | 0.00 | 0.27 | 0.27 | 93 | 951.7 |
| 20260509173029 | 49 | 198 | 6.0 | 10.0 | 0.00 | 0.27 | 0.27 | 93 | 951.7 |
| 20260509171532 | 48 | 210 | 6.0 | 9.0 | 0.00 | 0.27 | 0.27 | 93 | 951.7 |
| 20260509170023 | 48 | 197 | 3.0 | 11.0 | 0.01 | 0.27 | 0.27 | 93 | 951.8 |
| 20260509164621 | 48 | 206 | 4.0 | 7.0 | 0.01 | 0.27 | 0.27 | 93 | 952.0 |
| 20260509163034 | 49 | 191 | 5.0 | 9.0 | 0.01 | 0.27 | 0.27 | 93 | 951.9 |
| 20260509161523 | 48 | 189 | 7.0 | 12.0 | 0.02 | 0.27 | 0.27 | 93 | 952.1 |
| 20260509160016 | 48 | 173 | 6.0 | 11.0 | 0.01 | 0.26 | 0.26 | 93 | 952.1 |
| 20260509154515 | 48 | 173 | 4.0 | 10.0 | 0.02 | 0.26 | 0.26 | 93 | 952.2 |
| 20260509153020 | 48 | 175 | 3.0 | 10.0 | 0.03 | 0.26 | 0.26 | 93 | 952.3 |
| 20260509151511 | 48 | 179 | 5.0 | 9.0 | 0.02 | 0.25 | 0.25 | 93 | 952.6 |
| 20260509150006 | 47 | 165 | 2.0 | 9.0 | 0.04 | 0.27 | 0.25 | 93 | 952.7 |
| 20260509144504 | 47 | 185 | 2.0 | 9.0 | 0.03 | 0.26 | 0.24 | 93 | 952.7 |
| 20260509143002 | 47 | 171 | 2.0 | 9.0 | 0.04 | 0.25 | 0.23 | 93 | 952.8 |
| 20260509141600 | 47 | 138 | 4.0 | 10.0 | 0.05 | 0.25 | 0.23 | 93 | 952.8 |
| 20260509141502 | 47 | 175 | 5.0 | 10.0 | 0.05 | 0.25 | 0.23 | 93 | 952.8 |
| 20260509140105 | 47 | 160 | 3.0 | 6.0 | 0.04 | 0.23 | 0.21 | 93 | 952.7 |
| 20260509134558 | 46 | 192 | 3.0 | 9.0 | 0.05 | 0.24 | 0.21 | 93 | 952.9 |
| 20260509133105 | 46 | 155 | 3.0 | 9.0 | 0.05 | 0.22 | 0.19 | 93 | 953.0 |
| 20260509131556 | 46 | 178 | 2.0 | 6.0 | 0.05 | 0.21 | 0.18 | 93 | 953.0 |
| 20260509130057 | 46 | 172 | 3.0 | 7.0 | 0.05 | 0.20 | 0.17 | 93 | 953.1 |
| 20260509124558 | 46 | 190 | 2.0 | 7.0 | 0.06 | 0.19 | 0.16 | 93 | 953.0 |
| 20260509123101 | 45 | 173 | 4.0 | 7.0 | 0.07 | 0.17 | 0.14 | 93 | 953.0 |
| 20260509121558 | 45 | 191 | 3.0 | 7.0 | 0.08 | 0.16 | 0.13 | 93 | 953.0 |
| 20260509120048 | 45 | 185 | 4.0 | 6.0 | 0.09 | 0.15 | 0.12 | 92 | 953.4 |
| 20260509114557 | 45 | 174 | 4.0 | 7.0 | 0.08 | 0.13 | 0.10 | 92 | 953.3 |
| 20260509113041 | 44 | 169 | 6.0 | 11.0 | 0.06 | 0.10 | 0.07 | 92 | 953.3 |
| 20260509111540 | 44 | 157 | 4.0 | 7.0 | 0.04 | 0.08 | 0.05 | 92 | 953.2 |
| 20260509110039 | 44 | 168 | 3.0 | 7.0 | 0.02 | 0.06 | 0.03 | 92 | 953.2 |
| 20260509104536 | 43 | 174 | 4.0 | 8.0 | 0.01 | 0.05 | 0.02 | 92 | 953.1 |
| 20260509103034 | 43 | 197 | 3.0 | 7.0 | 0.00 | 0.04 | 0.01 | 92 | 953.0 |
| 20260509101536 | 43 | 195 | 4.0 | 8.0 | 0.00 | 0.04 | 0.01 | 92 | 953.0 |
| 20260509100032 | 43 | 184 | 5.0 | 7.0 | 0.00 | 0.04 | 0.01 | 91 | 952.9 |
| 20260509094540 | 43 | 198 | 4.0 | 7.0 | 0.00 | 0.04 | 0.01 | 91 | 953.0 |
| 20260509093028 | 43 | 192 | 3.0 | 8.0 | 0.00 | 0.04 | 0.01 | 91 | 953.1 |
| 20260509091528 | 43 | 171 | 3.0 | 8.0 | 0.00 | 0.04 | 0.01 | 90 | 953.1 |
| 20260509090047 | 43 | 182 | 2.0 | 8.0 | 0.00 | 0.04 | 0.01 | 90 | 953.2 |
| 20260509084529 | 43 | 182 | 4.0 | 6.0 | 0.00 | 0.04 | 0.01 | 89 | 953.2 |
| 20260509083041 | 42 | 169 | 1.0 | 5.0 | 0.00 | 0.04 | 0.01 | 88 | 953.2 |
| 20260509081527 | 42 | 167 | 3.0 | 6.0 | 0.00 | 0.04 | 0.01 | 87 | 953.4 |
| 20260509080118 | 42 | 192 | 2.0 | 6.0 | 0.00 | 0.04 | 0.01 | 86 | 953.4 |
| 20260509074528 | 42 | 178 | 3.0 | 4.0 | 0.01 | 0.04 | 0.01 | 85 | 953.5 |
| 20260509073018 | 42 | 178 | 1.0 | 4.0 | 0.01 | 0.04 | 0.01 | 85 | 953.5 |
| 20260509071518 | 42 | 192 | 2.0 | 3.0 | 0.01 | 0.04 | 0.01 | 84 | 953.5 |
| 20260509070013 | 42 | 176 | 3.0 | 5.0 | 0.00 | 0.03 | 0.00 | 83 | 953.4 |
| 20260509064511 | 42 | 178 | 2.0 | 5.0 | 0.00 | 0.03 | 0.00 | 82 | 953.6 |
| 20260509063010 | 43 | 156 | 1.0 | 3.0 | 0.00 | 0.03 | 0.00 | 81 | 953.6 |
| 20260509061508 | 43 | 135 | 0.0 | 3.0 | 0.00 | 0.03 | 0.00 | 80 | 953.7 |
| 20260509060008 | 42 | 76 | 1.0 | 3.0 | 0.00 | 0.03 | 0.00 | 79 | 954.0 |
| 20260509054505 | 42 | 65 | 1.0 | 2.0 | 0.00 | 0.03 | 0.00 | 77 | 954.1 |
| 20260509053007 | 42 | 65 | 1.0 | 2.0 | 0.00 | 0.03 | 0.00 | 77 | 954.1 |
| 20260509051507 | 42 | 64 | 2.0 | 4.0 | 0.00 | 0.03 | 0.00 | 77 | 954.1 |
| 20260509050010 | 43 | 67 | 2.0 | 4.0 | 0.00 | 0.03 | 0.00 | 77 | 954.0 |
| 20260509044606 | 43 | 101 | 1.0 | 3.0 | 0.00 | 0.03 | 0.00 | 76 | 954.3 |
| 20260509043102 | 42 | 99 | 1.0 | 3.0 | 0.00 | 0.03 | 0.00 | 76 | 954.4 |
| 20260509041555 | 42 | 69 | 1.0 | 3.0 | 0.00 | 0.03 | 0.00 | 76 | 954.4 |
| 20260509040052 | 42 | 69 | 1.0 | 3.0 | 0.00 | 0.03 | 0.00 | 75 | 954.4 |
| 20260509034559 | 43 | 69 | 1.0 | 4.0 | 0.00 | 0.03 | 0.03 | 72 | 954.5 |
| 20260509033104 | 44 | 90 | 1.0 | 3.0 | 0.00 | 0.03 | 0.03 | 72 | 954.5 |
| 20260509031550 | 44 | 90 | 2.0 | 4.0 | 0.00 | 0.03 | 0.03 | 71 | 954.3 |
| 20260509030050 | 45 | 92 | 1.0 | 3.0 | 0.00 | 0.03 | 0.03 | 70 | 954.6 |
| 20260509024558 | 45 | 92 | 1.0 | 3.0 | 0.00 | 0.03 | 0.03 | 67 | 954.7 |
| 20260509023048 | 46 | 91 | 1.0 | 3.0 | 0.00 | 0.03 | 0.03 | 67 | 954.7 |
| 20260509021548 | 46 | 92 | 1.0 | 3.0 | 0.00 | 0.03 | 0.03 | 64 | 954.7 |
| 20260509020049 | 46 | 89 | 1.0 | 3.0 | 0.00 | 0.03 | 0.03 | 64 | 954.7 |
| 20260509014547 | 47 | 86 | 0.0 | 1.0 | 0.00 | 0.03 | 0.03 | 65 | 954.6 |
| 20260509013049 | 47 | 86 | 1.0 | 3.0 | 0.00 | 0.03 | 0.03 | 64 | 954.6 |
| 20260509011548 | 47 | 5 | 1.0 | 3.0 | 0.00 | 0.03 | 0.03 | 63 | 954.4 |
| 20260509010045 | 48 | 5 | 1.0 | 3.0 | 0.00 | 0.03 | 0.03 | 63 | 954.2 |
| 20260509004555 | 48 | 5 | 0.0 | 2.0 | 0.00 | 0.03 | 0.03 | 61 | 953.8 |
| 20260509003046 | 49 | 5 | 0.0 | 0.0 | 0.00 | 0.03 | 0.03 | 61 | 953.7 |
| 20260509001546 | 50 | 5 | 1.0 | 2.0 | 0.00 | 0.03 | 0.03 | 60 | 953.9 |
| 20260509000046 | 51 | 360 | 0.0 | 2.0 | 0.00 | 0.03 | 0.03 | 57 | 953.7 |
| 20260508234542 | 52 | 360 | 0.0 | 2.0 | 0.00 | 0.03 | 0.03 | 55 | 953.5 |
| 20260508233042 | 52 | 355 | 0.0 | 2.0 | 0.00 | 0.03 | 0.03 | 54 | 953.2 |
| 20260508231545 | 53 | 355 | 1.0 | 4.0 | 0.00 | 0.03 | 0.03 | 54 | 953.2 |
| 20260508230040 | 53 | 24 | 0.0 | 3.0 | 0.00 | 0.03 | 0.03 | 55 | 953.3 |
| 20260508224601 | 53 | 30 | 1.0 | 5.0 | 0.00 | 0.03 | 0.03 | 54 | 953.1 |
| 20260508223039 | 54 | 290 | 1.0 | 5.0 | 0.00 | 0.03 | 0.03 | 53 | 953.2 |
| 20260508221547 | 53 | 11 | 1.0 | 4.0 | 0.00 | 0.03 | 0.03 | 54 | 953.1 |
| 20260508220037 | 53 | 5 | 0.0 | 5.0 | 0.00 | 0.03 | 0.03 | 52 | 953.3 |
| 20260508214541 | 54 | 36 | 1.0 | 6.0 | 0.00 | 0.03 | 0.03 | 53 | 953.3 |
| 20260508213038 | 55 | 298 | 2.0 | 8.0 | 0.00 | 0.03 | 0.03 | 53 | 953.3 |
| 20260508211532 | 54 | 309 | 2.0 | 9.0 | 0.00 | 0.03 | 0.03 | 52 | 953.3 |
| 20260508210032 | 54 | 271 | 2.0 | 10.0 | 0.00 | 0.03 | 0.03 | 52 | 953.5 |